This is the latest recevied weather packets stored in our database for station/object W3AJR. If no packets are shown the sender has not sent any weather packets the latest 10 day(s).
| Time | Temp. | Humidity | Pressure | Rain* | Wind** | Luminosity | Snow |
|---|---|---|---|---|---|---|---|
| 1778087423 | 18.33° C | 88% | 1008.5 hPa | 0 mm | - | 156 W/m² | - |
| 1778087120 | 18.33° C | 87% | 1008.8 hPa | 0 mm | - | 204 W/m² | - |
| 1778086812 | 17.78° C | 88% | 1009 hPa | 0 mm | - | 198 W/m² | - |
| 1778086510 | 17.78° C | 87% | 1008.8 hPa | 0 mm | - | 199 W/m² | - |
| 1778086206 | 17.78° C | 88% | 1009 hPa | 0 mm | - | 215 W/m² | - |
| 1778085903 | 17.78° C | 88% | 1008.8 hPa | 0 mm | - | 199 W/m² | - |
| 1778085601 | 17.78° C | 87% | 1009 hPa | 0 mm | - | 176 W/m² | - |
| 1778085296 | 17.78° C | 88% | 1008.9 hPa | 0 mm | - | 246 W/m² | - |
| 1778084990 | 17.78° C | 87% | 1009 hPa | 0 mm | - | 325 W/m² | - |
| 1778084689 | 17.78° C | 88% | 1009.2 hPa | 0 mm | - | 339 W/m² | - |
| 1778084386 | 17.78° C | 88% | 1008.9 hPa | 0 mm | - | 350 W/m² | - |
| 1778084084 | 17.78° C | 88% | 1009.1 hPa | 0 mm | - | 329 W/m² | - |
| 1778083781 | 17.78° C | 88% | 1009 hPa | 0 mm | - | 410 W/m² | - |
| 1778083478 | 17.78° C | 90% | 1009.5 hPa | 0 mm | - | 323 W/m² | - |
| 1778083175 | 17.22° C | 90% | 1009.1 hPa | 0 mm | - | 298 W/m² | - |
| 1778082872 | 17.22° C | 91% | 1009.3 hPa | 0 mm | - | 319 W/m² | - |
| 1778081754 | 16.67° C | 94% | 1009.2 hPa | 0 mm | - | 143 W/m² | - |
| 1778081452 | 16.67° C | 94% | 1009.4 hPa | 0 mm | - | 148 W/m² | - |
| 1778081148 | 16.11° C | 94% | 1009.2 hPa | 0 mm | - | 174 W/m² | - |
| 1778080846 | 16.11° C | 96% | 1009.2 hPa | 0 mm | - | 160 W/m² | - |
| 1778080544 | 16.11° C | 97% | 1009.3 hPa | 0 mm | - | 180 W/m² | - |
| 1778080241 | 16.11° C | 97% | 1009.1 hPa | 0 mm | - | 192 W/m² | - |
| 1778079937 | 16.11° C | 97% | 1009.3 hPa | 0 mm | - | 258 W/m² | - |
| 1778079635 | 16.11° C | 97% | 1009.1 hPa | 0 mm | - | 333 W/m² | - |
| 1778079331 | 16.11° C | 98% | 1009.3 hPa | 0 mm | - | 267 W/m² | - |
* Rain latest hour (hover to see other rain measurements)
** Current wind speed in m/s (hover to see current wind gust speed)